When you browse on this site, cookies collect data to enhance your experience and personalize the content and advertising you see.
Visit our Privacy Policy to learn more. By continuing to use the site, you agree to this use of cookies and data.
  • en Belgique
  • Liste des pays
  • À 7 jours
  • Température de l'eau
  • Carte satellitaire
  • Carte météo
  • Widgets météo
  • user-avatar
    Se connecter

    Météo par heure à Tiranё

    Ce jour, 20 Janvier, Dimanche

    Heure Température Précipitation Vent Pression Humidité
    00:00 +8°C° 0.1 mm 2 m/s 752 mmHg 77%
    01:00 +8°C° 0.1 mm 2 m/s 751 mmHg 76%
    02:00 +8°C° 0.7 mm 3 m/s 751 mmHg 76%
    03:00 +7°C° 0.7 mm 3 m/s 751 mmHg 76%
    04:00 +7°C° 0.7 mm 3 m/s 751 mmHg 76%
    05:00 +7°C° 0.9 mm 3 m/s 751 mmHg 77%
    06:00 +7°C° 0.9 mm 2 m/s 751 mmHg 79%
    07:00 +7°C° 0.9 mm 2 m/s 752 mmHg 80%
    08:00 +8°C° 0.2 mm 2 m/s 752 mmHg 76%
    09:00 +9°C° 0.2 mm 2 m/s 752 mmHg 72%
    10:00 +10°C° 0.2 mm 3 m/s 752 mmHg 69%
    11:00 +11°C° 0.1 mm 3 m/s 752 mmHg 67%
    12:00 +12°C° 0.1 mm 3 m/s 752 mmHg 66%
    13:00 +13°C° 0.1 mm 3 m/s 752 mmHg 65%
    14:00 +13°C° 0.5 mm 2 m/s 752 mmHg 69%
    15:00 +13°C° 0.5 mm 2 m/s 752 mmHg 72%
    16:00 +12°C° 0.5 mm 1 m/s 752 mmHg 76%
    17:00 +11°C° 0.4 mm 1 m/s 752 mmHg 79%
    18:00 +11°C° 0.4 mm 1 m/s 752 mmHg 81%
    19:00 +10°C° 0.4 mm 1 m/s 752 mmHg 84%
    20:00 +9°C° 0.3 mm 1 m/s 752 mmHg 83%
    21:00 +8°C° 0.3 mm 2 m/s 753 mmHg 83%
    22:00 +8°C° 0.3 mm 2 m/s 753 mmHg 82%
    23:00 +7°C° 0.1 mm 2 m/s 753 mmHg 81%

    Demain, 21 Janvier, Lundi

    Heure Température Précipitation Vent Pression Humidité
    00:00 +7°C° 0.1 mm 2 m/s 753 mmHg 80%
    01:00 +7°C° 0.1 mm 2 m/s 753 mmHg 78%
    02:00 +7°C° 0 mm 2 m/s 753 mmHg 77%
    03:00 +6°C° 0 mm 2 m/s 753 mmHg 75%
    04:00 +5°C° 0 mm 3 m/s 753 mmHg 74%
    05:00 +5°C° 0 mm 3 m/s 753 mmHg 73%
    06:00 +5°C° 0 mm 3 m/s 753 mmHg 72%
    07:00 +5°C° 0 mm 3 m/s 753 mmHg 71%
    08:00 +7°C° 0 mm 3 m/s 753 mmHg 66%
    09:00 +9°C° 0 mm 2 m/s 753 mmHg 61%
    10:00 +12°C° 0 mm 2 m/s 754 mmHg 56%
    11:00 +13°C° 0 mm 2 m/s 753 mmHg 52%
    12:00 +14°C° 0 mm 1 m/s 753 mmHg 49%
    13:00 +15°C° 0 mm 1 m/s 753 mmHg 45%
    14:00 +14°C° 0 mm 1 m/s 753 mmHg 49%
    15:00 +14°C° 0 mm 1 m/s 753 mmHg 53%
    16:00 +13°C° 0 mm 1 m/s 753 mmHg 57%
    17:00 +12°C° 0 mm 1 m/s 753 mmHg 60%
    18:00 +10°C° 0 mm 2 m/s 753 mmHg 63%
    19:00 +9°C° 0 mm 2 m/s 753 mmHg 67%
    20:00 +9°C° 0 mm 2 m/s 753 mmHg 67%
    21:00 +8°C° 0 mm 3 m/s 753 mmHg 68%
    22:00 +8°C° 0 mm 3 m/s 753 mmHg 69%
    23:00 +8°C° 0.1 mm 3 m/s 753 mmHg 69%

    Après-demain, 22 Janvier, Mardi

    Heure Température Précipitation Vent Pression Humidité
    00:00 +8°C° 0.1 mm 3 m/s 753 mmHg 70%
    01:00 +8°C° 0.1 mm 3 m/s 753 mmHg 70%
    02:00 +8°C° 0.5 mm 3 m/s 752 mmHg 71%
    03:00 +8°C° 0.5 mm 3 m/s 752 mmHg 72%
    04:00 +7°C° 0.5 mm 4 m/s 751 mmHg 73%
    05:00 +7°C° 0.1 mm 4 m/s 751 mmHg 72%
    06:00 +7°C° 0.1 mm 5 m/s 751 mmHg 70%
    07:00 +7°C° 0.1 mm 6 m/s 750 mmHg 69%
    08:00 +8°C° 0 mm 6 m/s 750 mmHg 67%
    09:00 +9°C° 0 mm 6 m/s 750 mmHg 65%
    10:00 +9°C° 0 mm 6 m/s 750 mmHg 63%
    11:00 +10°C° 0 mm 6 m/s 749 mmHg 60%
    12:00 +11°C° 0 mm 6 m/s 748 mmHg 56%
    13:00 +13°C° 0 mm 6 m/s 748 mmHg 53%
    14:00 +13°C° 0.4 mm 6 m/s 747 mmHg 57%
    15:00 +12°C° 0.4 mm 5 m/s 746 mmHg 62%
    16:00 +11°C° 0.4 mm 4 m/s 746 mmHg 66%
    17:00 +10°C° 0.9 mm 5 m/s 745 mmHg 68%
    18:00 +9°C° 0.9 mm 5 m/s 745 mmHg 70%
    19:00 +8°C° 0.9 mm 5 m/s 744 mmHg 72%
    20:00 +8°C° 0.7 mm 5 m/s 744 mmHg 72%
    21:00 +8°C° 0.7 mm 6 m/s 744 mmHg 73%
    22:00 +8°C° 0.7 mm 6 m/s 743 mmHg 73%
    23:00 +8°C° 1 mm 6 m/s 743 mmHg 75%

    23 Janvier, Mercredi

    Heure Température Précipitation Vent Pression Humidité
    00:00 +8°C° 1 mm 6 m/s 742 mmHg 77%
    01:00 +7°C° 1 mm 5 m/s 741 mmHg 78%
    02:00 +7°C° 1.4 mm 6 m/s 741 mmHg 78%
    03:00 +6°C° 1.4 mm 7 m/s 741 mmHg 78%
    04:00 +6°C° 1.4 mm 8 m/s 740 mmHg 79%
    05:00 +6°C° 1 mm 8 m/s 741 mmHg 82%
    06:00 +7°C° 1 mm 8 m/s 741 mmHg 85%
    07:00 +7°C° 1 mm 8 m/s 741 mmHg 89%
    08:00 +8°C° 0.7 mm 7 m/s 742 mmHg 83%
    09:00 +9°C° 0.7 mm 7 m/s 742 mmHg 78%
    10:00 +9°C° 0.7 mm 6 m/s 743 mmHg 73%
    11:00 +10°C° 1.3 mm 7 m/s 743 mmHg 69%
    12:00 +10°C° 1.3 mm 7 m/s 742 mmHg 66%
    13:00 +10°C° 1.3 mm 8 m/s 742 mmHg 62%
    14:00 +10°C° 0.5 mm 8 m/s 742 mmHg 64%
    15:00 +10°C° 0.5 mm 7 m/s 742 mmHg 66%
    16:00 +9°C° 0.5 mm 7 m/s 742 mmHg 67%
    17:00 +8°C° 0.1 mm 7 m/s 742 mmHg 69%
    18:00 +7°C° 0.1 mm 6 m/s 743 mmHg 71%
    19:00 +5°C° 0.1 mm 6 m/s 743 mmHg 73%
    20:00 +5°C° 0 mm 6 m/s 743 mmHg 72%
    21:00 +6°C° 0 mm 5 m/s 743 mmHg 71%
    22:00 +5°C° 0 mm 5 m/s 742 mmHg 69%
    23:00 +5°C° 0 mm 5 m/s 742 mmHg 69%

    24 Janvier, Jeudi

    Heure Température Précipitation Vent Pression Humidité
    00:00 +5°C° 0 mm 4 m/s 741 mmHg 69%
    01:00 +5°C° 0 mm 3 m/s 741 mmHg 70%
    02:00 +5°C° 0 mm 4 m/s 740 mmHg 69%
    03:00 +5°C° 0 mm 5 m/s 739 mmHg 69%
    04:00 +4°C° 0 mm 6 m/s 738 mmHg 69%
    05:00 +5°C° 0.4 mm 5 m/s 738 mmHg 71%
    06:00 +5°C° 0.4 mm 4 m/s 738 mmHg 73%
    07:00 +7°C° 0.4 mm 3 m/s 737 mmHg 75%
    08:00 +7°C° 0.3 mm 3 m/s 737 mmHg 72%
    09:00 +8°C° 0.3 mm 3 m/s 737 mmHg 69%
    10:00 +9°C° 0.3 mm 3 m/s 737 mmHg 66%
    11:00 +10°C° 0 mm 3 m/s 737 mmHg 64%
    12:00 +11°C° 0 mm 3 m/s 736 mmHg 61%
    13:00 +12°C° 0 mm 3 m/s 735 mmHg 58%
    14:00 +12°C° 0 mm 3 m/s 735 mmHg 61%
    15:00 +13°C° 0 mm 2 m/s 735 mmHg 64%
    16:00 +12°C° 0 mm 2 m/s 735 mmHg 67%
    17:00 +10°C° 0.7 mm 3 m/s 735 mmHg 72%
    18:00 +8°C° 0.7 mm 5 m/s 736 mmHg 77%
    19:00 +7°C° 0.7 mm 6 m/s 736 mmHg 82%
    20:00 +7°C° 1.7 mm 6 m/s 736 mmHg 84%
    21:00 +6°C° 1.6 mm 5 m/s 737 mmHg 87%
    22:00 +6°C° 1.6 mm 4 m/s 737 mmHg 89%
    23:00 +6°C° 0.3 mm 4 m/s 738 mmHg 88%

    25 Janvier, Vendredi

    Heure Température Précipitation Vent Pression Humidité
    00:00 +6°C° 0.3 mm 4 m/s 738 mmHg 87%
    01:00 +6°C° 0.3 mm 4 m/s 738 mmHg 86%
    02:00 +6°C° 0.3 mm 4 m/s 738 mmHg 85%
    03:00 +5°C° 0.3 mm 4 m/s 738 mmHg 84%
    04:00 +5°C° 0.3 mm 4 m/s 738 mmHg 82%
    05:00 +5°C° 0.1 mm 4 m/s 739 mmHg 80%
    06:00 +5°C° 0.1 mm 4 m/s 739 mmHg 78%
    07:00 +4°C° 0.1 mm 4 m/s 740 mmHg 76%
    08:00 +6°C° 0 mm 4 m/s 740 mmHg 70%
    09:00 +8°C° 0 mm 3 m/s 740 mmHg 64%
    10:00 +9°C° 0 mm 3 m/s 741 mmHg 58%
    11:00 +10°C° 0 mm 3 m/s 741 mmHg 53%
    12:00 +12°C° 0 mm 2 m/s 741 mmHg 49%
    13:00 +13°C° 0 mm 2 m/s 740 mmHg 44%
    14:00 +11°C° 0 mm 3 m/s 740 mmHg 49%
    15:00 +11°C° 0 mm 3 m/s 740 mmHg 54%
    16:00 +10°C° 0 mm 4 m/s 741 mmHg 59%
    17:00 +8°C° 0 mm 4 m/s 741 mmHg 62%
    18:00 +7°C° 0 mm 4 m/s 742 mmHg 66%
    19:00 +6°C° 0 mm 4 m/s 742 mmHg 70%
    20:00 +7°C° 0 mm 3 m/s 743 mmHg 69%
    21:00 +7°C° 0 mm 3 m/s 743 mmHg 69%
    22:00 +5°C° 0 mm 3 m/s 744 mmHg 69%
    23:00 +5°C° 0 mm 3 m/s 744 mmHg 69%
    Voir plus